Home   Weather   Bridgewater   Past weeks
Flag for USA

Past Weather in Bridgewater, Massachusetts, USA — Yesterday and Last 2 Weeks

Now
57 °F

Passing clouds.


Feels Like: 57 °F
Forecast: 61 / 39 °F
Wind: 3 mph from West

Location: Taunton Municipal Airport

Current Time: Oct 15, 2019 at 12:48:35 am

Latest Report: Oct 15, 2019 at 12:01 am


Visibility: 9 mi

Pressure: 29.99 "Hg

Humidity: 90%

Dew Point: 54 °F

Location of BridgewaterLocation

Past Weather in Bridgewater — Graph

°F

Bridgewater Temperature Yesterday

Maximum temperature yesterday: 67 °F (at 3:52 pm)
Minimum temperature yesterday: 45 °F (at 12:52 am)
Average temperature yesterday: 59 °F

High & Low Weather Summary for the Past Weeks

 TemperatureHumidityPressure
High81 °F (Oct 2, 1:52 pm)93% (Oct 4, 12:52 am)30.45 "Hg (Oct 4, 12:52 am)
Low31 °F (Oct 5, 6:52 am)35% (Oct 5, 3:52 pm)29.75 "Hg (Oct 2, 4:52 am)
Average57 °F78%30.12 "Hg
* Reported Sep 29 11:08 pm — Oct 14 11:32 pm, Bridgewater. Weather by CustomWeather, © 2019

Note: Actual official high and low records may vary slightly from our data, if they occured in-between our weather recording intervals... More about our weather records

Advertising

Bridgewater Weather History for the Previous 24 Hours

Scroll right to see more
 ConditionsComfort  
Time TempWeatherWind HumidityBarometerVisibility
11:32 pm
Mon, Oct 14
59 °FPassing clouds.5 mph87%29.99 "Hg9 mi
10:52 pm58 °FClear.5 mph90%29.98 "Hg10 mi
9:52 pm58 °FClear.5 mph87%29.96 "Hg10 mi
8:52 pm58 °FClear.3 mph90%29.96 "Hg10 mi
7:52 pm58 °FClear.3 mph90%29.93 "Hg10 mi
6:52 pm60 °FClear.5 mph86%29.92 "Hg10 mi
5:52 pm63 °FSunny.3 mph75%29.90 "Hg10 mi
4:52 pm67 °FPassing clouds.7 mph71%29.88 "Hg10 mi
4:37 pm66 °FScattered clouds.5 mph70%29.89 "Hg10 mi
3:52 pm67 °FScattered clouds.No wind71%29.88 "Hg10 mi
2:52 pm66 °FPartly sunny.No wind73%29.90 "Hg10 mi
2:30 pm66 °FOvercast.No wind75%29.91 "Hg10 mi
1:52 pm64 °FOvercast.No wind78%29.93 "Hg10 mi
12:52 pm64 °FOvercast.No wind75%29.94 "Hg10 mi
11:52 am63 °FOvercast.No wind75%29.96 "Hg10 mi
11:19 am63 °FMostly cloudy.No wind75%29.97 "Hg10 mi
10:52 am62 °FMore clouds than sun.5 mph75%29.98 "Hg10 mi
9:52 am59 °FOvercast.5 mph84%29.99 "Hg10 mi
9:44 am59 °FMostly cloudy.5 mph84%29.99 "Hg10 mi
8:52 am57 °FMostly cloudy.No wind87%30.01 "Hg10 mi
7:52 am55 °FOvercast.No wind87%30.00 "Hg10 mi
6:52 am54 °FOvercast.No wind90%29.99 "Hg10 mi
5:52 am52 °FOvercast.No wind89%29.99 "Hg7 mi
4:52 am51 °FLight rain. Fog.No wind89%29.99 "Hg6 mi
3:52 am50 °FOvercast.No wind89%30.00 "Hg8 mi
2:52 am50 °FOvercast.No wind89%30.02 "Hg9 mi
1:52 am48 °FOvercast.No wind89%30.04 "Hg9 mi
12:52 am45 °FPassing clouds.No wind90%30.03 "Hg9 mi
Weather by CustomWeather, © 2019

See weather overview